Location: *
(34.7780°N, 135.2637°E)
Time: 08:14:18
(UTC+00:00)

Daily predictions for brighter satellites

Satellite Brightness Start Highest point End
(mag) Time Altitude Azimuth Time Altitude Azimuth Time Altitude Azimuth
ATLAS 3B R/B 4.0 17:41:00 30° N 17:41:00 30° N 17:44:28 10° NNE
Atlas Centaur 2 4.2 17:46:51 23° SE 17:46:51 23° SE 17:49:38 10° ESE
ADEOS II 4.2 17:50:25 10° N 17:51:51 19° N 17:51:51 19° N
CZ-3 R/B 4.5 16:56:47 10° W 18:01:51 71° SSW 18:16:00 10° ESE
Centaur D-1AR AC-36 4.2 18:04:06 23° SSE 18:04:06 23° SSE 18:10:50 10° ESE
Cosmos 2026 Rocket 4.0 18:12:43 78° ENE 18:12:43 78° ENE 18:18:49 10° N
CENTAUR R/B 4.0 18:17:47 25° NNW 18:17:47 25° NNW 18:22:08 10° NNE
SL-4 R/B 4.2 18:28:28 19° ESE 18:28:28 19° ESE 18:29:40 10° ESE
Yuri Rocket 4.4 18:32:05 38° SSE 18:32:05 38° SSE 18:36:53 10° ESE
Hubble Space Telescope 3.5 18:34:27 11° SE 18:34:27 11° SE 18:34:38 10° SE
ADEOS 3.7 18:28:39 10° NNE 18:33:52 70° ESE 18:34:44 58° SSE
Cosmos 2369 Rocket 4.4 18:36:11 12° NNW 18:36:11 12° NNW 18:37:03 10° NNW
Cosmos 1340 4.0 18:33:58 10° N 18:37:32 38° ENE 18:38:06 35° ESE
Timation 2 Rocket 3.9 18:32:24 10° NNW 18:38:25 78° ENE 18:44:23 10° SSE
Cosmos 1315 Rocket 4.1 18:42:05 35° N 18:42:05 35° N 18:44:32 10° N
Cosmos 2242 Rocket 4.0 18:43:08 57° N 18:43:08 57° N 18:46:43 10° N
Cosmos 773 Rocket 4.4 18:44:21 47° NNW 18:44:21 47° NNW 18:48:25 10° N
ASTRO E2 4.0 18:45:12 34° SE 18:45:12 34° SE 18:47:45 10° ESE
Lacrosse 5 3.4 18:39:49 10° NNW 18:44:23 33° NE 18:48:56 10° ESE
Cosmos 1428 Rocket 4.4 18:44:30 60° WSW 18:45:14 64° W 18:51:28 10° N
Cosmos 1655 Rocket 4.1 18:42:43 15° S 18:47:57 76° E 18:54:12 10° N
CZ-2C R/B 4.0 18:45:55 10° NNE 18:50:28 34° E 18:55:05 10° SSE
TSX-5 3.2 19:08:47 80° ENE 19:08:47 80° ENE 19:11:50 10° NNE
Cosmos 1908 Rocket 3.5 19:04:24 10° N 19:08:45 87° E 19:13:07 10° S
PSLV R/B 3.7 19:05:23 10° N 19:09:36 50° WNW 19:09:39 50° WNW
Abrixas rocket 2.5 19:14:21 52° SE 19:14:25 52° SE 19:17:23 10° ENE
IDEFIX/ARIANE 42P 2.7 19:10:40 10° N 19:15:46 51° WNW 19:18:00 31° SW
Cosmos 1680 Rocket 3.7 19:11:16 10° S 19:16:29 71° ESE 19:21:42 10° NNE
COSMOS 2441 4.3 19:12:21 10° NNE 19:17:16 87° WNW 19:22:10 10° SSW
Cosmos 923 Rocket 3.9 19:14:17 19° SSW 19:18:13 82° WNW 19:23:34 10° NNE
Cosmos 2266 Rocket 3.9 19:14:14 10° S 19:20:19 88° E 19:26:23 10° N
Cosmos 1346 Rocket 3.0 19:16:35 10° NNW 19:20:32 48° W 19:23:35 16° SSW
USA 215 3.4 19:14:39 10° NE 19:21:12 75° SE 19:26:49 15° SW
Sakura Rocket 3.9 19:21:08 29° SSW 19:21:59 31° S 19:26:23 10° SE
Meteor 1-27 Rocket 4.4 19:21:21 31° WSW 19:22:54 36° WNW 19:28:12 10° N
SeaSat 1 2.5 19:18:59 10° NNE 19:23:49 57° WNW 19:26:25 26° SW
MSX 3.7 19:19:48 10° N 19:25:31 68° WNW 19:31:10 10° SSW
Cosmos 1656 4.2 19:20:27 10° S 19:26:02 60° ESE 19:31:38 10° NNE
SJ-6F 4.3 19:22:46 10° N 19:26:59 83° WNW 19:31:09 10° SSW
Cosmos 1536 3.1 19:24:29 10° NNW 19:28:15 42° W 19:32:00 10° SSW
Atlas Centaur 2 3.6 19:29:30 22° SW 19:32:02 28° SSW 19:38:17 10° SSE
Okean O Rocket 4.2 19:33:41 10° NE 19:37:14 23° E 19:40:45 10° SSE
OAO 3 Rocket 3.1 19:37:26 25° WSW 19:40:06 78° SSE 19:44:45 10° E
OAO 2 Rocket 3.2 19:41:16 22° W 19:44:30 86° N 19:49:26 10° E
H-II Stage 2 3.8 19:44:03 17° SW 19:46:53 32° S 20:00:22 10° ESE
H-2A R/B 3.6 19:47:17 10° NNW 19:50:10 21° WNW 19:51:09 19° W
Cosmos 1782 Rocket 3.6 19:47:41 10° NNW 19:51:58 53° W 19:56:15 10° S
Cosmos 1743 2.8 19:50:38 10° N 19:54:32 85° E 19:58:24 10° S
PAYLOAD A 4.4 19:51:36 10° N 19:55:53 36° WNW 20:00:10 10° SW
Meteor 1-19 Rocket 4.3 19:55:36 10° S 20:01:15 88° E 20:07:05 10° N
Meteor PRIRODA 3.7 19:59:34 10° N 20:03:14 59° WNW 20:06:52 10° SSW
CZ-4B R/B 4.4 19:58:03 10° NNE 20:03:18 46° E 20:08:24 10° S
CZ-4B R/B 3.6 20:00:54 10° N 20:05:06 40° WNW 20:09:13 10° SW
SL-4 R/B 3.4 20:04:10 14° WSW 20:05:34 16° SW 20:07:57 10° S
Cosmos 2151 Rocket 4.4 20:03:53 10° N 20:08:16 58° E 20:12:39 10° SSE
Cosmos 2315 Rocket 4.0 20:02:31 10° N 20:08:43 72° W 20:14:54 10° S
BREEZE-M DEB (TANK) 2.5 20:04:18 10° WSW 20:08:50 59° NW 20:11:10 10° NE
Cosmos 1674 Rocket 4.3 20:05:48 10° S 20:10:02 57° E 20:14:17 10° NNE
Cosmos 1697 Rocket 2.8 20:06:45 10° SSW 20:12:24 86° ESE 20:18:05 10° NNE
Okean 1-7 4.5 20:09:37 10° WSW 20:12:39 18° WNW 20:15:42 10° NNW
Cosmos 1666 3.9 20:10:41 10° NW 20:13:32 20° W 20:16:23 10° SW
CZ-3C R/B 3.2 20:14:30 10° S 20:15:40 11° SSE 20:17:10 10° SE
Cosmos 2227 Rocket 2.4 20:12:45 10° NNW 20:18:28 84° ENE 20:24:08 10° SSE
Cosmos 2221 Rocket 4.2 20:15:33 10° SW 20:19:34 34° W 20:23:36 10° NNW
Meteor 2-4 Rocket 3.8 20:14:37 10° S 20:19:58 82° E 20:25:20 10° N
MOS 1-B 4.4 20:14:21 10° N 20:20:06 66° WNW 20:25:50 10° SSW
Sich 1 Rocket 4.3 20:16:12 10° NNW 20:20:09 31° W 20:24:08 10° SSW
Shenzhou-11 Module 3.8 20:19:15 10° WNW 20:21:18 19° N 20:23:22 10° NE
Cosmos 1371 Rocket 4.2 20:17:03 10° NNW 20:22:26 85° ENE 20:27:44 10° SSE
ASTRO E2 3.8 20:20:31 10° W 20:24:04 31° SSW 20:27:36 10° SE
Cosmos 2219 3.4 20:18:57 10° NNW 20:24:21 47° WSW 20:29:43 10° S
Meteor 2-9 Rocket 4.2 20:19:42 10° N 20:25:03 86° E 20:30:21 10° S
